Date String (YYYY-MM-DD hh:mm:ss) UTC,Instrument flags,Ambient pressure (hPa),Sample flow (lpm),Bypass flow (lpm),Sample temperature (°C),Ambient temperature (°C),ASC tube jacket temperature (°C),LED temperature (°C),Box temperature (°C),Sample RH (%),Span deviation,Mass concentration (μg/m³),Mass concentration (μg/m³),Mass concentration (μg/m³)
DateTimeUTC,F1_M11,P_M11,Q1_M11,Q2_M11,T1_M11,T2_M11,T3_M11,T4_M11,T5_M11,U1_M11,ZSPAN_M11,X0_M11,X2_M11,X1_M11
2022-07-25 14:00:00,,0829.1,4.99,0.00,32.3,29.1,00.0,39.9,32.8,33.3,0000.0,0010.62,0006.80,0006.24
2022-07-25 14:01:00,,0828.9,5.01,0.00,32.4,29.2,00.0,40.0,32.8,32.6,0000.0,0010.88,0006.78,0006.23
2022-07-25 14:02:00,,0829.0,5.01,0.00,32.4,29.2,00.0,40.0,32.8,32.5,0000.0,0010.69,0006.75,0006.22
2022-07-25 14:03:00,,0829.0,4.99,0.00,32.4,29.0,00.0,40.1,32.8,33.4,0000.0,0010.58,0006.70,0006.21
2022-07-25 14:04:00,,0829.1,5.01,0.00,32.4,28.3,00.0,40.1,32.7,32.6,0000.0,0010.45,0006.69,0006.21
2022-07-25 14:05:00,,0829.1,4.98,0.00,32.3,27.9,00.0,40.1,32.6,32.2,0000.0,0010.40,0006.68,0006.19
2022-07-25 14:06:00,,0829.0,5.00,0.00,32.2,27.8,00.0,40.1,32.5,32.1,0000.0,0010.24,0006.61,0006.16
2022-07-25 14:07:00,,0829.0,5.00,0.00,32.0,27.9,00.0,40.1,32.4,32.5,0000.0,0010.20,0006.58,0006.13
2022-07-25 14:08:00,,0828.9,4.99,0.00,31.9,28.0,00.0,40.1,32.3,32.7,0000.0,0010.15,0006.57,0006.11
2022-07-25 14:09:00,,0829.0,5.01,0.00,31.8,28.1,00.0,40.1,32.3,32.4,0000.0,0009.88,0006.54,0006.10
2022-07-25 14:10:00,,0829.1,5.00,0.00,31.7,28.3,00.0,40.1,32.4,32.7,0000.0,0009.73,0006.52,0006.08
2022-07-25 14:11:00,,0829.0,4.99,0.00,31.7,28.4,00.0,40.1,32.4,32.6,0000.0,0009.78,0006.55,0006.07
2022-07-25 14:12:00,,0829.0,5.00,0.00,31.6,28.6,00.0,40.1,32.4,32.5,0000.0,0009.43,0006.54,0006.05
2022-07-25 14:13:00,,0829.0,5.00,0.00,31.6,28.7,00.0,40.1,32.4,32.1,0000.0,0009.38,0006.52,0006.03
2022-07-25 14:14:00,,0829.1,5.00,0.00,31.5,28.8,00.0,40.0,32.5,33.0,0000.0,0009.26,0006.49,0006.01
2022-07-25 14:15:00,,0828.9,4.99,0.00,31.5,28.9,00.0,40.0,32.5,33.8,0000.0,0009.31,0006.51,0006.02
2022-07-25 14:16:00,,0829.1,5.00,0.00,31.5,28.9,00.0,40.0,32.5,35.1,0000.0,0009.49,0006.59,0006.07
2022-07-25 14:17:00,,0828.9,5.02,0.00,31.6,29.0,00.0,40.0,32.6,35.2,0000.0,0009.69,0006.70,0006.15
2022-07-25 14:18:00,,0829.0,4.99,0.00,31.8,29.1,00.0,40.0,32.8,34.3,0000.0,0009.97,0006.76,0006.20
2022-07-25 14:19:00,,0829.1,5.00,0.00,31.9,29.2,00.0,40.0,32.8,33.9,0000.0,0010.20,0006.84,0006.24
2022-07-25 14:20:00,,0829.1,5.01,0.00,32.0,28.9,00.0,40.0,32.8,34.4,0000.0,0010.31,0006.91,0006.29
2022-07-25 14:21:00,,0829.1,4.98,0.00,32.0,28.2,00.0,39.9,32.7,34.7,0000.0,0010.49,0006.99,0006.36
2022-07-25 14:22:00,,0829.0,5.00,0.00,32.0,27.8,00.0,39.9,32.6,34.2,0000.0,0010.63,0007.07,0006.44
2022-07-25 14:23:00,,0829.0,5.01,0.00,31.9,27.7,00.0,39.9,32.5,35.0,0000.0,0010.81,0007.18,0006.52
2022-07-25 14:24:00,,0829.1,4.99,0.00,31.8,27.8,00.0,39.9,32.4,34.9,0000.0,0010.94,0007.29,0006.61
2022-07-25 14:25:00,,0828.7,5.01,0.00,31.9,28.0,00.0,39.9,32.5,34.5,0000.0,0011.19,0007.43,0006.69
2022-07-25 14:26:00,,0828.6,4.98,0.00,32.0,28.1,00.0,40.0,32.5,34.0,0000.0,0011.20,0007.46,0006.74
2022-07-25 14:27:00,,0828.8,5.01,0.00,32.0,28.3,00.0,40.0,32.5,33.7,0000.0,0011.15,0007.46,0006.75
2022-07-25 14:28:00,,0828.9,4.99,0.00,31.9,28.4,00.0,40.0,32.5,34.8,0000.0,0011.16,0007.46,0006.75
2022-07-25 14:29:00,,0829.1,5.00,0.00,31.9,28.5,00.0,40.0,32.5,34.4,0000.0,0011.07,0007.48,0006.76
2022-07-25 14:30:00,,0829.1,5.01,0.00,31.9,28.7,00.0,40.0,32.5,33.7,0000.0,0011.08,0007.48,0006.79
2022-07-25 14:31:00,,0829.2,4.99,0.00,31.8,28.8,00.0,40.1,32.5,34.5,0000.0,0011.16,0007.51,0006.83
2022-07-25 14:32:00,,0829.1,5.00,0.00,31.8,28.9,00.0,40.1,32.5,34.5,0000.0,0011.40,0007.57,0006.88
2022-07-25 14:33:00,,0829.0,5.00,0.00,31.8,28.9,00.0,40.1,32.6,34.9,0000.0,0011.55,0007.63,0006.92
2022-07-25 14:34:00,,0828.9,4.99,0.00,31.8,29.0,00.0,40.1,32.6,34.6,0000.0,0011.54,0007.66,0006.95
2022-07-25 14:35:00,,0828.9,5.01,0.00,31.9,29.1,00.0,40.1,32.7,34.4,0000.0,0011.48,0007.65,0006.97
2022-07-25 14:36:00,,0828.7,4.99,0.00,32.0,28.9,00.0,40.1,32.8,33.8,0000.0,0011.36,0007.65,0007.00
2022-07-25 14:37:00,,0828.7,5.01,0.00,32.0,28.2,00.0,40.0,32.7,33.9,0000.0,0011.45,0007.72,0007.05
2022-07-25 14:38:00,,0828.7,5.01,0.00,32.0,27.8,00.0,40.0,32.5,34.2,0000.0,0011.55,0007.77,0007.10
2022-07-25 14:39:00,,0828.7,5.01,0.00,31.9,27.7,00.0,40.0,32.4,34.2,0000.0,0011.56,0007.82,0007.14
2022-07-25 14:40:00,,0828.7,5.00,0.00,31.8,27.7,00.0,40.0,32.3,34.5,0000.0,0011.65,0007.88,0007.17
2022-07-25 14:41:00,,0828.9,5.01,0.00,31.7,27.9,00.0,40.0,32.3,34.5,0000.0,0011.97,0007.92,0007.19
2022-07-25 14:42:00,,0829.3,5.01,0.00,31.7,28.0,00.0,40.0,32.3,33.5,0000.0,0011.98,0007.90,0007.15
2022-07-25 14:43:00,,0829.3,4.99,0.00,31.6,28.2,00.0,40.0,32.3,33.6,0000.0,0011.64,0007.81,0007.08
2022-07-25 14:44:00,,0829.3,5.00,0.00,31.6,28.3,00.0,39.9,32.3,34.0,0000.0,0011.54,0007.75,0007.01
2022-07-25 14:45:00,,0829.3,4.99,0.00,31.6,28.5,00.0,39.9,32.4,34.6,0000.0,0011.77,0007.74,0006.95
2022-07-25 14:46:00,,0829.4,5.01,0.00,31.6,28.6,00.0,39.9,32.4,34.6,0000.0,0012.36,0007.77,0006.87
2022-07-25 14:47:00,,0829.3,5.02,0.00,31.6,28.7,00.0,39.9,32.5,34.5,0000.0,0012.94,0007.74,0006.80
2022-07-25 14:48:00,,0829.4,4.99,0.00,31.6,28.8,00.0,39.9,32.5,34.2,0000.0,0013.55,0007.68,0006.74
2022-07-25 14:49:00,,0829.4,5.00,0.00,31.6,28.9,00.0,39.9,32.5,34.3,0000.0,0013.85,0007.63,0006.67
2022-07-25 14:50:00,,0829.4,5.00,0.00,31.6,29.0,00.0,39.9,32.5,34.4,0000.0,0014.10,0007.61,0006.62
2022-07-25 14:51:00,,0829.3,5.00,0.00,31.6,29.0,00.0,39.9,32.6,34.0,0000.0,0014.21,0007.54,0006.57
2022-07-25 14:52:00,,0829.3,4.99,0.00,31.6,28.5,00.0,39.9,32.5,33.9,0000.0,0014.36,0007.48,0006.54
2022-07-25 14:53:00,,0829.2,5.00,0.00,31.5,27.9,00.0,39.8,32.4,34.0,0000.0,0015.11,0007.42,0006.53
2022-07-25 14:54:00,,0828.9,5.01,0.00,31.5,27.7,00.0,39.8,32.3,34.6,0000.0,0015.30,0007.45,0006.54
2022-07-25 14:55:00,,0829.1,5.00,0.00,31.3,27.7,00.0,39.8,32.2,34.9,0000.0,0015.32,0007.46,0006.58
2022-07-25 14:56:00,,0829.2,4.99,0.00,31.3,27.8,00.0,39.8,32.2,34.8,0000.0,0015.13,0007.43,0006.61
2022-07-25 14:57:00,,0829.1,4.99,0.00,31.4,28.0,00.0,39.7,32.3,34.9,0000.0,0014.71,0007.38,0006.62
2022-07-25 14:58:00,,0828.8,5.01,0.00,31.5,28.1,00.0,39.7,32.3,34.1,0000.0,0014.35,0007.32,0006.62
2022-07-25 14:59:00,,0828.9,4.99,0.00,31.5,28.3,00.0,39.7,32.3,34.4,0000.0,0013.66,0007.30,0006.62
